Regional Weather Roundup
Issued by NWS Columbia, SC

Home | Current Version | Previous Version | Text Only | Print | Product List | Glossary On
Versions: 1 2 3 4 5 6 7 8 9 10 11 12 13 14 15 16 17 18 19 20 21 22 23 24 25 26 27 28 29 30 31 32 33 34 35 36 37 38 39 40 41 42 43 44 45 46 47 48 49 50
000
ASUS42 KCAE 222010
RWRCAE
REGIONAL WEATHER ROUNDUP
NATIONAL WEATHER SERVICE COLUMBIA SC
300 PM EST THU FEB 22 2018

NOTE: "FAIR" INDICATES FEW OR NO CLOUDS BELOW 12,000 FEET WITH NO
SIGNIFICANT WEATHER AND/OR OBSTRUCTIONS TO VISIBILITY.

NOT ALL STATIONS ARE QUALITY CONTROLLED BY THE NATIONAL
WEATHER SERVICE. USE DATA WITH CAUTION...ESPECIALLY
DEWPOINT OBSERVATIONS.

SCZ001>056-GAZ040-063>065-077-222100-
...UPSTATE SOUTH CAROLINA...

CITY           SKY/WX    TMP DP  RH WIND       PRES   REMARKS
ANDERSON       FAIR      77  62  59 SW9       30.39F
LIBERTY        FAIR      78  64  62 SW9G16    30.39F
SPARTANBURG    FAIR      75  59  57 W10G17    30.39F
CLEMSON        PTSUNNY   76  62  62 VRB7      30.40F
GREENVILLE     FAIR      76  63  64 SW8       30.41F
GREENWOOD      CLOUDY    77  62  59 W5        30.40F
GREER          FAIR      75  62  64 SW13      30.40F
ROCK HILL      FAIR      78  63  59 S9        30.39F
CHESTER        MOCLDY    79  59  50 S10       30.40F
LAURENS        MOCLDY    77  63  61 W3        30.40F


...CENTRAL SOUTH CAROLINA...

CITY           SKY/WX    TMP DP  RH WIND       PRES   REMARKS
COLUMBIA APT   FAIR      81  62  52 S7        30.38F
COLUMBIA OWENS FAIR      79  60  52 SE6       30.40F
MCENTIRE ANGB  PTSUNNY   79  61  53 S7        30.40F
ORANGEBURG     PTSUNNY   78  62  57 SE8       30.41F
SUMTER SHAW    CLOUDY    78  61  54 S7        30.39F
NEWBERRY       FAIR      79  63  57 SW7       30.42F
AIKEN          FAIR      79  63  57 S6        30.43F
BARNWELL         N/A     81  61  50 CALM      30.40F
MANNING        CLOUDY    77  12   8 MISG      30.41F
CAMDEN         CLOUDY    77  63  61 CALM      30.41F
LANCASTER      MOCLDY    77  63  61 S8        30.40F
WINNSBORO      CLOUDY    77  61  57 S7        30.39F


...EASTERN AND COASTAL SOUTH CAROLINA...

CITY           SKY/WX    TMP DP  RH WIND       PRES   REMARKS
MYRTLE BEACH   FAIR      74  63  68 S13       30.44F
N MYRTLE BCH   FAIR      73  62  68 S10       30.43F
CONWAY         MOCLDY    79  59  50 W6        30.41F
MARION         MOCLDY    79  59  50 W9        30.41F
HARTSVILLE     CLOUDY    77  63  61 S9        30.41F
FLORENCE       CLOUDY    78  59  51 SW7       30.41F
DARLINGTON     CLOUDY    76  64  66 S8        30.41F
CHARLESTON APT FAIR      81  57  43 S9        30.41F
MOUNT PLEASANT FAIR      79  61  53 S7        30.42F
WALTERBORO     FAIR      79  59  50 S5        30.42F
BEAUFORT       FAIR      79  61  53 SE8       30.41


...EASTERN GEORGIA...

CITY           SKY/WX    TMP DP  RH WIND       PRES   REMARKS
AUGUSTA BUSH F FAIR      82  63  52 SE6       30.38F
AUGUSTA DANIEL FAIR      79  63  57 SE8       30.40F
THOMSON        PTSUNNY   80  62  54 W6        30.44F
CLAXTON        FAIR      83  60  45 CALM      30.40F
SYLVANIA       FAIR      80  63  56 CALM      30.41F
STATESBORO     CLOUDY    80  55  42 NE3       30.40F
SAVANNAH       FAIR      82  60  47 SE9       30.41F


...SOUTHERN NORTH CAROLINA...

CITY           SKY/WX    TMP DP  RH WIND       PRES   REMARKS
CHARLOTTE      PTSUNNY   79  63  57 S14       30.38F
MONROE         PTSUNNY   76  63  64 S6        30.39F
WADESBORO      FAIR      78  60  53 S7        30.39F
ROCKINGHAM     MOCLDY    77  63  61 SW8       30.41F
RUTHERFORDTON  FAIR      76  62  61 S16       30.38F
ASHEVILLE      FAIR      76  59  55 SW12      30.39F

$$



USA.gov is the U.S. government's official web portal to all federal, state and local government web resources and services.